[[{"header":{"parameterUnit":"m.s-1","parameterCategory":1,"la1":30.2991,"la2":30.254,"lo1":-89.0895,"lo2":-89.0444,"dy":0.0017,"dx":0.0017,"nx":28,"ny":28,"refTime":"2024-10-08T09:00:00:Z","depth":0,"parameterNumber":2,"parameterNumberName":"U-component_of_WINDS"},"data":[0,0,0,0,0,0,0,0,0,0,0,0,0,0,0,0,0,0,0,0,0,0,0,0,0,0,0,0,0,0,0,0,0,0,0,0,0,0,0,0,0,0,0,0,0,0,0,0,0,0,0,0,0,0,0,0,0,0,-1.775,-1.7752,0,-1.7876,-1.7878,-1.7879,-1.7841,-1.7838,-1.7835,-1.7833,-1.7966,-1.7972,-1.7978,0,0,0,0,0,0,0,0,0,0,0,0,0,-1.7479,-1.7484,-1.775,-1.7752,-1.7753,-1.7876,-1.7878,-1.788,-1.7841,-1.7838,-1.7835,-1.7832,-1.7964,-1.7971,-1.7979,0,0,0,0,0,0,0,0,0,0,0,0,0,-1.76,-1.7486,-1.775,-1.7749,-1.775,-1.7876,-1.7878,-1.788,-1.7842,-1.7838,-1.7834,-1.783,-1.7962,-1.7971,-1.798,-1.8115,0,0,-1.8007,-1.8011,0,0,0,0,0,0,0,0,-1.7594,-1.761,-1.7747,-1.7749,-1.7751,-1.7839,-1.7831,-1.7959,-1.7843,-1.7807,-1.7833,-1.7828,-1.7927,-1.7939,-1.7971,-1.8122,-1.8127,-1.8008,-1.8013,-1.8017,-1.802,0,0,0,0,0,0,0,-1.7585,-1.7605,-1.78,-1.7749,-1.7751,-1.7743,-1.7756,-1.7855,-1.7888,-1.781,-1.7807,-1.7823,-1.7927,-1.7963,-1.7974,-1.8129,-1.8008,-1.8016,-1.8021,-1.8025,-1.8399,-1.8404,0,0,0,0,0,0,-1.7575,-1.7598,-1.7796,-1.7804,-1.7661,-1.7751,-1.7766,-1.7815,-1.7887,-1.7894,-1.7826,-1.782,-1.7949,-1.7964,-1.7979,-1.8145,-1.8017,-1.8026,-1.8031,-1.8395,-1.84,-1.8405,0,0,0,0,0,0,-1.757,-1.7593,-1.7791,-1.77,-1.7725,-1.776,-1.7815,-1.7819,-1.7855,-1.7899,-1.7905,-1.7856,-1.7947,-1.7966,-1.8082,-1.8149,-1.803,-1.8038,-1.8389,-1.8396,-1.8403,-1.8476,0,0,0,0,0,0,-1.7562,-1.7591,-1.7643,-1.7702,-1.773,-1.7891,-1.7819,-1.7824,-1.787,-1.7864,-1.7929,-1.7936,-1.7945,-1.8069,-1.8091,-1.8159,-1.8045,-1.8384,-1.8393,-1.8401,-1.8468,-1.8485,-1.8499,0,0,0,0,0,-1.7552,-1.7659,-1.7645,-1.767,-1.7794,-1.7895,-1.7911,-1.7919,-1.7875,-1.7928,-1.7956,-1.7934,-1.8137,-1.8081,-1.8106,-1.8177,-1.838,-1.839,-1.84,-1.8461,-1.8482,-1.8499,0,0,0,0,0,0,-1.7608,-1.7666,-1.7652,-1.7781,-1.7833,-1.7888,-1.7955,-1.794,-1.8007,-1.7998,-1.8006,-1.8021,-1.814,-1.817,-1.8106,-1.8314,-1.8252,-1.8268,-1.829,-1.831,-1.8325,-1.8317,-1.8053,0,0,0,0,0,-1.7635,-1.771,-1.7758,-1.7866,-1.7893,-1.792,-1.7964,-1.7965,-1.802,-1.8042,-1.8079,-1.8135,-1.8211,-1.8262,-1.8334,-1.8471,-1.8486,-1.8533,-1.8548,-1.8561,-1.8575,-1.8652,-1.8674,-1.8439,-1.8438,-1.8438,0,0,-1.7692,-1.7733,-1.778,-1.7879,-1.7919,-1.7999,-1.7939,-1.8025,-1.8085,-1.8056,-1.8168,-1.8197,-1.8259,-1.8387,-1.8445,-1.8415,-1.8643,-1.8574,-1.8583,-1.8591,-1.8665,-1.8687,-1.8707,-1.8445,-1.8444,-1.8443,0,0,-1.7837,-1.7874,-1.797,-1.8012,-1.8074,-1.8091,-1.8114,-1.8171,-1.8189,-1.8301,-1.8282,-1.8353,-1.8484,-1.853,-1.857,-1.8733,-1.8716,-1.8756,-1.8838,-1.8913,-1.8932,-1.8948,-1.9009,-1.903,-1.877,-1.877,-1.877,0,-1.79,-1.8019,-1.8022,-1.8111,-1.8155,-1.813,-1.8229,-1.8269,-1.8353,-1.8385,-1.835,-1.8515,-1.8555,-1.8694,-1.8733,-1.8766,-1.8794,-1.875,-1.8928,-1.8945,-1.8961,-1.9019,-1.9041,-1.8775,-1.8774,-1.8773,-1.8773,0,-1.8095,-1.8177,-1.8247,-1.8328,-1.838,-1.8473,-1.8491,-1.8544,-1.854,-1.8561,-1.8677,-1.8723,-1.8806,-1.8838,-1.8836,-1.8978,-1.8958,-1.8926,-1.8865,-1.8988,-1.9043,-1.9065,-1.8781,-1.878,-1.8778,-1.8777,0,0,-1.8281,-1.8361,-1.8387,-1.8424,-1.849,-1.8555,-1.8647,-1.8726,-1.8773,-1.883,-1.891,-1.9021,-1.8992,-1.9038,-1.904,-1.9105,-1.9234,-1.9065,-1.9067,-1.9098,-1.9397,-1.9423,-1.9449,-1.9221,-1.9226,-1.9229,-1.9393,0,-1.8434,-1.8596,-1.8601,-1.8749,-1.8827,-1.8804,-1.8885,-1.8935,-1.8957,-1.9027,-1.9051,-1.9131,-1.9084,-1.9112,-1.9176,-1.9205,-1.9295,-1.9193,-1.9298,-1.9302,-1.9287,-1.9477,-1.9505,-1.9657,-1.9414,-1.9417,-1.942,0,-1.8635,-1.8698,-1.8854,-1.8911,-1.8943,-1.9016,-1.909,-1.9156,-1.9213,-1.9224,-1.9276,-1.9268,-1.9365,-1.9298,-1.9432,-1.9362,-1.9405,-1.9426,-1.9432,-1.9445,-1.9371,-1.9498,-1.9705,-1.973,-1.9453,-1.945,-1.9448,0,-1.8758,-1.8883,-1.8993,-1.9024,-1.9092,-1.9144,-1.9175,-1.9227,-1.9276,-1.934,-1.9372,-1.9447,-1.949,-1.9549,-1.9563,-1.9512,-1.9698,-1.9632,-1.9713,-1.9713,-1.9755,-1.9753,-1.9976,-1.9778,-1.9777,-1.9777,-1.9776,0,-1.8931,-1.9028,-1.905,-1.9118,-1.9226,-1.9231,-1.9339,-1.9366,-1.9414,-1.9488,-1.9472,-1.9542,-1.9554,-1.9628,-1.9639,-1.975,-1.9768,-1.9782,-1.9785,-1.9786,-1.9784,-1.9816,-1.9807,-1.9783,-1.9782,-1.978,-1.9779,0,-1.9089,-1.9107,-1.9226,-1.9279,-1.9295,-1.9373,-1.942,-1.9486,-1.9505,-1.96,-1.9622,-1.9653,-1.9739,-1.9757,-1.9859,-1.9866,-1.9999,-1.999,-1.998,-1.9981,-2.0061,-2.0055,-2.0316,-2.0351,-2.0126,-2.0128,-2.013,0,-1.9199,-1.9274,-1.9335,-1.9383,-1.9416,-1.9494,-1.9542,-1.955,-1.9602,-1.9673,-1.9731,-1.9814,-1.9882,-2.002,-2.0053,-2.0131,-2.0125,-2.0211,-2.0137,-2.0136,-2.013,-2.0127,-2.0136,-2.0226,-2.0229,-2.0231,-2.0232,0,-1.9395,-1.94,-1.947,-1.9544,-1.9602,-1.9661,-1.9717,-1.9758,-1.9773,-1.9832,-1.9919,-1.9971,-2.0075,-2.0159,-2.0238,-2.0271,-2.0256,-2.0255,-2.0278,-2.0282,-2.0275,-2.0283,-2.0022,-2.025,-2.0248,-2.0247,-2.0246,-2.0245,-1.9535,-1.96,-1.9654,-1.9734,-1.9776,-1.9829,-1.9894,-1.9921,-1.9993,-2.0078,-2.0078,-2.0173,-2.0229,-2.0333,-2.0371,-2.0447,-2.042,-2.0453,-2.0463,-2.0472,-2.0481,-2.0259,-2.046,-2.046,-2.046,-2.0459,-2.0459,0,-1.9732,-1.9765,-1.9838,-1.9916,-1.9979,-1.9956,-2.0017,-2.0072,-2.0156,-2.0209,-2.0276,-2.0376,-2.0458,-2.0496,-2.0577,-2.0631,-2.0626,-2.0652,-2.065,-2.0659,-2.0498,-2.0471,-2.0655,-2.0655,-2.0655,-2.0655,-2.0655,-2.0655,-1.9842,-1.9953,-1.9964,-2.0097,-2.0129,-2.0222,-2.0259,-2.0309,-2.0351,-2.0464,-2.0531,-2.0555,-2.0603,-2.0687,-2.0762,-2.0771,-2.0803,-2.0834,-2.084,-2.069,-2.067,-2.0651,-2.0626,-2.084,-2.084,-2.0995,-2.0997,-2.0998]},{"header":{"parameterUnit":"m.s-1","parameterCategory":1,"la1":30.2991,"la2":30.254,"lo1":-89.0895,"lo2":-89.0444,"dy":0.0017,"dx":0.0017,"nx":28,"ny":28,"refTime":"2024-10-08T09:00:00:Z","depth":0,"parameterNumber":3,"parameterNumberName":"V-component_of_WINDS"},"data":[0,0,0,0,0,0,0,0,0,0,0,0,0,0,0,0,0,0,0,0,0,0,0,0,0,0,0,0,0,0,0,0,0,0,0,0,0,0,0,0,0,0,0,0,0,0,0,0,0,0,0,0,0,0,0,0,0,0,-5.0295,-5.0296,0,-5.0357,-5.0358,-5.0359,-5.0272,-5.0269,-5.0266,-5.0263,-5.0322,-5.0326,-5.0331,0,0,0,0,0,0,0,0,0,0,0,0,0,-5.0098,-5.0102,-5.0295,-5.0296,-5.0297,-5.0357,-5.0358,-5.0359,-5.0272,-5.0268,-5.0265,-5.0261,-5.0321,-5.0326,-5.0331,0,0,0,0,0,0,0,0,0,0,0,0,0,-5.0174,-5.0103,-5.0295,-5.0261,-5.0259,-5.0357,-5.0358,-5.0359,-5.0273,-5.0268,-5.0264,-5.0259,-5.0319,-5.0325,-5.0332,-5.0465,0,0,-5.0352,-5.0355,0,0,0,0,0,0,0,0,-5.017,-5.0181,-5.0265,-5.0264,-5.0261,-5.0302,-5.031,-5.0395,-5.0274,-5.0267,-5.0263,-5.0257,-5.0319,-5.0325,-5.0347,-5.0468,-5.0471,-5.0353,-5.0357,-5.036,-5.0362,0,0,0,0,0,0,0,-5.0165,-5.0178,-5.032,-5.0267,-5.0264,-5.0241,-5.0247,-5.0326,-5.0318,-5.0268,-5.0262,-5.027,-5.0317,-5.0341,-5.0348,-5.0472,-5.0353,-5.0359,-5.0363,-5.0365,-5.0705,-5.0709,0,0,0,0,0,0,-5.0164,-5.0174,-5.0318,-5.0322,-5.0203,-5.0249,-5.0255,-5.0294,-5.0317,-5.0316,-5.0274,-5.0266,-5.0332,-5.034,-5.0349,-5.0507,-5.036,-5.0366,-5.037,-5.07,-5.0706,-5.0711,0,0,0,0,0,0,-5.016,-5.0178,-5.0315,-5.0246,-5.0262,-5.0257,-5.0301,-5.0297,-5.0321,-5.0322,-5.032,-5.03,-5.0328,-5.034,-5.0437,-5.0508,-5.0369,-5.0375,-5.0694,-5.0702,-5.0709,-5.0824,0,0,0,0,0,0,-5.0155,-5.0177,-5.0229,-5.0248,-5.0266,-5.0404,-5.0305,-5.0302,-5.0333,-5.0323,-5.0346,-5.0345,-5.0325,-5.0428,-5.0444,-5.0515,-5.038,-5.0687,-5.0697,-5.0706,-5.0814,-5.0835,-5.0852,0,0,0,0,0,-5.0148,-5.0258,-5.0232,-5.0249,-5.0331,-5.0408,-5.0418,-5.0395,-5.0339,-5.0391,-5.0391,-5.0344,-5.0498,-5.0439,-5.0456,-5.053,-5.0683,-5.0695,-5.0705,-5.0805,-5.083,-5.0852,0,0,0,0,0,0,-5.0245,-5.026,-5.0231,-5.0351,-5.0379,-5.0393,-5.0458,-5.0422,-5.0466,-5.0454,-5.0421,-5.0427,-5.0532,-5.054,-5.0474,-5.066,-5.0581,-5.0596,-5.0651,-5.0675,-5.0694,-5.0689,-5.0386,0,0,0,0,0,-5.0281,-5.0344,-5.0352,-5.0457,-5.0473,-5.0463,-5.0496,-5.0475,-5.0503,-5.0514,-5.0521,-5.0549,-5.0602,-5.0639,-5.0689,-5.0814,-5.0818,-5.0873,-5.0893,-5.0908,-5.0922,-5.0989,-5.1013,-5.0748,-5.0748,-5.0748,0,0,-5.0355,-5.037,-5.0412,-5.0477,-5.0497,-5.0561,-5.0474,-5.0546,-5.0593,-5.0524,-5.0617,-5.0624,-5.0652,-5.0764,-5.0813,-5.0774,-5.0996,-5.0923,-5.0935,-5.094,-5.1003,-5.1028,-5.105,-5.0756,-5.0755,-5.0753,0,0,-5.0522,-5.0541,-5.063,-5.0652,-5.0683,-5.0676,-5.0697,-5.0717,-5.0719,-5.0812,-5.0762,-5.0816,-5.091,-5.0933,-5.0956,-5.1132,-5.109,-5.1149,-5.1249,-5.1314,-5.1335,-5.1354,-5.1416,-5.1439,-5.1162,-5.1163,-5.1163,0,-5.061,-5.0707,-5.068,-5.0756,-5.0786,-5.0728,-5.0817,-5.0839,-5.0884,-5.0905,-5.0861,-5.0978,-5.0992,-5.1109,-5.1152,-5.1173,-5.1195,-5.1146,-5.1335,-5.1353,-5.1369,-5.1429,-5.1452,-5.1169,-5.1169,-5.1168,-5.1167,0,-5.0813,-5.088,-5.0948,-5.0996,-5.1033,-5.1115,-5.11,-5.114,-5.1116,-5.1113,-5.1208,-5.1223,-5.1275,-5.1301,-5.1278,-5.1414,-5.1389,-5.134,-5.126,-5.1402,-5.1457,-5.148,-5.1179,-5.1177,-5.1175,-5.1173,0,0,-5.1044,-5.1075,-5.1101,-5.1121,-5.1151,-5.1202,-5.1281,-5.1333,-5.1368,-5.1401,-5.1466,-5.1547,-5.1502,-5.1529,-5.1507,-5.1564,-5.1702,-5.1508,-5.1508,-5.1544,-5.1853,-5.189,-5.1917,-5.1675,-5.1679,-5.1682,-5.1851,0,-5.1211,-5.135,-5.1328,-5.1461,-5.1523,-5.1469,-5.1537,-5.1562,-5.1561,-5.1612,-5.161,-5.1668,-5.1604,-5.162,-5.1674,-5.1674,-5.1764,-5.1662,-5.1734,-5.1737,-5.1729,-5.1946,-5.1985,-5.2143,-5.1872,-5.1876,-5.1878,0,-5.1426,-5.1468,-5.1608,-5.1628,-5.1653,-5.1716,-5.1761,-5.1811,-5.1838,-5.1833,-5.1863,-5.1831,-5.1908,-5.1827,-5.1932,-5.1863,-5.1891,-5.1895,-5.1901,-5.1907,-5.1817,-5.1958,-5.2193,-5.2217,-5.1912,-5.1909,-5.1907,0,-5.1581,-5.1673,-5.1768,-5.1787,-5.1813,-5.1858,-5.187,-5.1893,-5.1925,-5.1964,-5.1985,-5.2032,-5.2058,-5.2095,-5.2076,-5.2019,-5.2185,-5.2102,-5.2182,-5.2183,-5.222,-5.2218,-5.2464,-5.2238,-5.2237,-5.2237,-5.2236,0,-5.1771,-5.1859,-5.1838,-5.1897,-5.1993,-5.1967,-5.2062,-5.2067,-5.2088,-5.2145,-5.21,-5.2155,-5.2126,-5.2178,-5.2164,-5.2253,-5.2265,-5.2262,-5.2257,-5.2267,-5.2267,-5.2285,-5.2274,-5.2243,-5.2242,-5.2241,-5.224,0,-5.196,-5.1951,-5.2051,-5.2068,-5.2073,-5.2144,-5.2157,-5.2211,-5.2206,-5.228,-5.2296,-5.2288,-5.2347,-5.2332,-5.2396,-5.2385,-5.2499,-5.2479,-5.2491,-5.2486,-5.2567,-5.256,-5.2833,-5.2867,-5.2619,-5.2622,-5.2624,0,-5.2083,-5.2149,-5.2173,-5.2209,-5.2226,-5.2284,-5.2318,-5.2293,-5.2329,-5.2364,-5.2414,-5.247,-5.2513,-5.261,-5.2609,-5.2658,-5.2639,-5.2732,-5.2646,-5.2654,-5.2641,-5.2638,-5.2644,-5.2749,-5.2752,-5.2754,-5.2756,0,-5.23,-5.2292,-5.2343,-5.2392,-5.2434,-5.2471,-5.2503,-5.2535,-5.2513,-5.2555,-5.2616,-5.265,-5.2716,-5.2771,-5.2815,-5.2826,-5.2788,-5.2783,-5.2804,-5.2815,-5.2818,-5.2818,-5.2537,-5.2777,-5.2775,-5.2773,-5.2772,-5.2771,-5.246,-5.2517,-5.2542,-5.26,-5.2622,-5.2654,-5.2706,-5.2708,-5.2759,-5.2812,-5.2793,-5.2863,-5.2886,-5.2942,-5.2959,-5.3011,-5.2976,-5.3007,-5.3015,-5.3023,-5.3033,-5.281,-5.3019,-5.3019,-5.3018,-5.3018,-5.3017,0,-5.2676,-5.269,-5.2743,-5.2791,-5.2836,-5.2797,-5.283,-5.2871,-5.2933,-5.2959,-5.3002,-5.3072,-5.3125,-5.3129,-5.3178,-5.322,-5.3204,-5.3234,-5.3231,-5.3234,-5.3062,-5.3039,-5.3247,-5.3247,-5.3246,-5.3246,-5.3246,-5.3246,-5.2793,-5.2887,-5.2882,-5.2985,-5.2998,-5.3067,-5.309,-5.3118,-5.3138,-5.3219,-5.3263,-5.3266,-5.3282,-5.3333,-5.3379,-5.3379,-5.3399,-5.3437,-5.343,-5.3269,-5.3246,-5.3224,-5.3202,-5.3441,-5.3442,-5.3597,-5.3599,-5.36]}]]